Meridian, MS

1:53 PM CST on November 20, 2019 (GMT -0600)
Key

Weather History for KMEI - September, 2019

Change the Weather History Date:

Saturday, September 28, 2019

  Actual Average Record
Temperature  
Mean Temperature 81 °F 71 °F  
Max Temperature 95 °F 83 °F 96 °F (1953)
Min Temperature 67 °F 58 °F 41 °F (1967)
Degree Days  
Heating Degree Days 0 1  
Month to date heating degree days 0 4  
Since 1 July heating degree days 0 4  
Cooling Degree Days 16 6  
Month to date cooling degree days 514 292  
Year to date cooling degree days 2597 1912  
Growing Degree Days 31 (Base 50)    
Moisture  
Dew Point 68 °F    
Average Humidity 69    
Maximum Humidity 90    
Minimum Humidity 41    
Precipitation  
Precipitation 0.00 in 0.12 in 1.35 in (1998)
Month to date precipitation 0.23 3.19  
Year to date precipitation 43.18 42.15  
Sea Level Pressure  
Sea Level Pressure 30.04 in    
Wind  
Wind Speed 2 mph ()    
Max Wind Speed 15 mph    
Max Gust Speed 18 mph    
Visibility 10.0 miles    
Events      
T = Trace of Precipitation, MM = Missing Value Source: Averaged Metar Reports

Daily Weather History Graph

Daily Weather History Graph

Search for Another Location

Airport or City:

Astronomy

Sep. 28, 2019 Rise Set
Actual Time 6:46 AM CDT 6:43 PM CDT
Civil Twilight 6:22 AM CDT 7:08 PM CDT
Nautical Twilight 5:53 AM CDT 7:36 PM CDT
Astronomical Twilight 5:25 AM CDT 8:05 PM CDT
Moon 6:27 AM CDT (9/28) 7:07 PM CDT (9/28)
Length of Visible Light 12h 45m
Length of Day
11h 57m
Waning Crescent, 0% of the Moon is Illuminated
Sep 28
Waning Crescent
Sep 28
New
Oct 5
First Quarter
Oct 13
Full
Oct 21
Last Quarter

Hourly Weather History & Observations

Time (CDT) Temp. Heat Index Dew Point Humidity Pressure Visibility Wind Dir Wind Speed Gust Speed Precip Events Conditions
12:58 AM 73.0 °F - 66.0 °F 79% 29.94 in 10.0 mi SSW 3.5 mph - N/A   Clear
1:58 AM 71.1 °F - 66.0 °F 84% 29.96 in 10.0 mi Calm Calm - N/A   Clear
2:58 AM 69.1 °F - 64.9 °F 87% 29.97 in 10.0 mi Calm Calm - N/A   Clear
3:58 AM 69.1 °F - 64.9 °F 87% 29.98 in 10.0 mi Calm Calm - N/A   Clear
4:58 AM 68.0 °F - 64.0 °F 87% 30.00 in 10.0 mi Calm Calm - N/A   Clear
5:58 AM 68.0 °F - 63.0 °F 84% 30.02 in 10.0 mi Calm Calm - N/A   Clear
6:58 AM 68.0 °F - 64.0 °F 87% 30.05 in 9.0 mi Calm Calm - N/A   Clear
7:58 AM 71.1 °F - 66.0 °F 84% 30.07 in 10.0 mi Calm Calm - N/A   Clear
8:58 AM 78.1 °F - 71.1 °F 79% 30.09 in 10.0 mi Calm Calm - N/A   Clear
9:58 AM 82.9 °F 88.8 °F 73.0 °F 72% 30.11 in 10.0 mi SE 4.6 mph - N/A   Scattered Clouds
10:58 AM 87.1 °F 94.5 °F 73.0 °F 63% 30.11 in 10.0 mi South 5.8 mph - N/A   Clear
11:58 AM 91.0 °F 95.6 °F 69.1 °F 48% 30.10 in 10.0 mi SE 11.5 mph - N/A   Scattered Clouds
12:58 PM 91.0 °F 95.2 °F 68.0 °F 47% 30.08 in 10.0 mi Variable 3.5 mph - N/A   Mostly Cloudy
1:58 PM 91.9 °F 95.9 °F 68.0 °F 45% 30.06 in 10.0 mi South 4.6 mph - N/A   Mostly Cloudy
2:58 PM 91.9 °F 95.9 °F 68.0 °F 45% 30.05 in 10.0 mi South 6.9 mph - N/A   Scattered Clouds
3:58 PM 93.9 °F 97.5 °F 66.9 °F 41% 30.03 in 10.0 mi SE 8.1 mph - N/A   Mostly Cloudy
4:58 PM 93.9 °F 97.5 °F 66.9 °F 41% 30.03 in 10.0 mi South 8.1 mph - N/A   Clear
5:58 PM 91.0 °F 93.8 °F 66.0 °F 44% 30.03 in 10.0 mi South 5.8 mph - N/A   Clear
6:58 PM 82.9 °F 86.5 °F 69.1 °F 63% 30.03 in 10.0 mi Calm Calm - N/A   Clear
7:58 PM 80.1 °F 82.7 °F 68.0 °F 67% 30.04 in 10.0 mi Calm Calm - N/A   Clear
8:58 PM 77.0 °F - 69.1 °F 76% 30.06 in 10.0 mi Calm Calm - N/A   Clear
9:58 PM 75.9 °F - 69.1 °F 79% 30.07 in 10.0 mi Calm Calm - N/A   Clear
10:58 PM 73.9 °F - 68.0 °F 82% 30.07 in 10.0 mi Calm Calm - N/A   Clear
11:58 PM 72.0 °F - 68.0 °F 87% 30.07 in 10.0 mi Calm Calm - N/A   Clear